Temperature
11 11 11 11 11 11 10 10 10 10 10 10 10 10 10 10 10 11 11 11 11 11 11 11 11 11 11 11 11 11 11 11 11 11 11 11 11 11
11 11 11 11 10 10 10 10 10 10 10 10 10 10 10 10 10 10 10 10 10 10 10 10 10 10 10 10 10 10 10 10 10 10 10 10 10 10
11 10 10 10 10 10 10 10 10 10 9 10 10 10 10 10 10 10 10 10 10 10 10 10 10 10 10 10 10 10 10 10 10 10 10 10 10 10
10 10 10 10 10 10 10 10 9 9 9 9 9 9 9 9 9 10 10 10 10 10 10 10 9 9 10 10 9 10 10 10 10 10 10 10 10 10
10 10 10 10 10 9 9 9 9 9 9 9 9 9 9 9 9 9 9 9 9 9 9 9 9 9 9 9 9 9 9 9 9 9 9 9 9 9
10 10 10 10 9 9 9 9 9 9 9 8 8 9 9 9 9 9 9 9 9 9 9 9 9 9 9 9 9 9 9 9 9 9 9 9 9 9
10 10 10 9 9 9 9 9 9 8 8 8 8 8 8 8 9 9 8 9 9 9 9 8 8 8 8 8 8 8 8 8 8 8 8 9 9 9
10 10 9 9 9 9 8 8 8 8 8 8 8 8 8 8 8 8 8 8 8 8 8 8 8 8 8 8 8 8 8 8 8 8 8 8 8 8
10 10 9 9 9 9 8 8 8 8 8 8 8 8 8 8 8 8 8 8 8 8 8 8 8 8 8 8 8 8 8 8 8 8 8 8 8 8
9 9 9 9 9 8 8 8 8 8 8 8 8 8 8 8 7 7 7 7 7 7 7 7 7 8 7 7 7 7 7 7 7 7 8 8 8 8
9 9 9 8 8 8 8 8 8 8 8 7 7 7 7 7 7 7 7 7 7 7 7 6 7 7 7 7 7 7 7 7 7 7 7 7 7 7
9 9 8 8 8 8 8 8 8 8 7 7 7 7 7 7 7 7 7 7 6 6 6 6 6 6 6 7 7 7 7 7 7 7 7 7 7 7
9 8 8 8 8 8 7 7 7 7 7 7 7 7 7 7 6 6 6 6 6 6 6 6 6 6 6 6 6 6 6 6 7 7 7 7 7 7
8 8 8 8 8 7 7 7 7 7 7 7 6 6 6 6 6 6 6 6 6 6 6 5 5 5 5 5 5 6 6 6 6 6 6 6 6 6
8 8 8 7 7 7 7 7 6 6 6 6 6 6 6 6 6 6 5 5 5 5 5 5 5 5 5 5 5 5 5 5 5 6 6 5 6 6
7 7 7 7 7 7 6 6 6 6 6 6 5 5 5 5 5 5 5 5 5 5 5 5 5 4 4 4 4 5 5 5 5 5 5 5 5 5
7 7 7 6 6 6 6 6 5 5 5 5 5 5 5 5 5 5 5 5 4 4 5 4 4 4 4 4 4 4 4 4 4 4 5 5 5 5
6 6 6 6 6 6 5 5 5 5 5 4 4 4 4 4 4 4 4 4 4 4 4 4 4 4 4 4 4 4 4 4 4 4 4 4 4 4
6 6 5 5 5 5 5 5 4 4 4 4 4 4 4 4 4 4 4 4 4 4 4 4 4 4 3 3 4 4 4 4 4 4 4 4 4 4
5 5 5 5 5 4 4 4 4 4 3 3 3 3 3 3 3 3 3 3 3 3 3 3 3 3 3 3 3 3 3 3 3 3 4 4 4 4
5 5 4 4 4 4 4 3 3 3 3 3 3 3 2 2 2 3 3 3 3 3 3 3 3 3 3 3 3 3 3 3 3 3 3 3 3 3
4 4 4 4 4 3 3 3 3 3 2 2 2 2 2 2 2 2 2 2 2 2 2 2 2 2 2 2 2 2 2 2 3 3 3 3 2 2
3 3 3 3 3 3 3 3 3 2 2 2 2 2 2 2 2 2 2 2 2 2 2 2 2 2 2 2 2 2 2 2 2 2 2 2 2 2
Wind_Speed
2 2 2 1 2 2 2 2 3 1 2 2 2 2 3 2 3 3 3 4 5 4 4 3 3 3 3 3 3 3 3 3 3 3 2 3 2 2
2 2 2 1 1 2 2 1 2 3 2 1 2 2 2 2 3 2 2 4 4 4 4 4 3 2 2 2 2 3 3 2 2 2 2 2 3 2
2 3 3 2 2 2 2 2 2 2 2 1 1 2 1 2 2 2 3 2 2 3 3 3 2 2 1 1 1 1 2 2 2 2 2 2 3 2
4 3 3 2 2 2 2 2 2 2 2 2 1 1 1 2 1 2 2 2 2 2 2 2 2 2 2 1 0 1 1 1 2 2 2 2 3 3
4 4 4 4 3 2 3 3 2 2 2 2 1 1 1 1 1 2 2 2 2 2 2 2 2 2 2 1 1 1 2 2 3 3 3 3 3 3
4 5 5 6 6 5 4 4 3 3 2 2 1 1 1 1 0 0 1 2 2 3 3 2 2 2 2 2 2 2 2 3 3 4 4 4 4 4
4 4 5 6 7 6 5 5 5 4 3 2 2 1 1 1 1 1 1 2 2 1 1 2 2 2 2 3 3 3 3 3 4 5 5 5 4 4
5 4 4 5 6 7 7 7 7 6 5 4 3 3 3 3 2 2 1 0 2 1 0 2 1 2 2 2 3 3 3 3 4 4 4 3 3 3
5 4 4 4 5 4 5 5 6 7 7 6 5 5 4 5 4 2 2 2 3 2 1 2 1 2 3 4 4 4 4 4 4 4 4 3 3 3
5 5 5 4 5 5 4 4 4 4 6 5 6 6 5 5 5 5 4 2 1 1 1 2 2 2 3 4 5 5 4 5 5 4 4 4 4 3
4 4 5 5 6 6 5 4 3 3 4 6 6 5 5 5 4 3 2 2 2 2 1 2 2 2 2 3 5 5 4 4 4 4 3 3 4 4
3 3 5 6 6 7 6 5 5 5 3 2 3 3 2 3 5 4 5 3 2 2 2 2 2 1 2 2 2 3 3 4 4 4 4 4 4 3
3 3 3 6 6 7 6 6 7 5 3 3 2 2 1 1 2 3 4 4 4 3 3 3 2 1 2 2 2 2 2 2 3 3 4 4 3 3
4 4 4 5 5 6 5 5 5 4 2 2 2 2 2 3 3 3 4 4 4 4 4 4 3 3 2 2 3 2 2 2 2 2 2 3 3 3
4 5 4 4 4 3 4 5 4 3 3 3 3 3 3 3 2 2 1 2 1 1 2 4 3 3 3 3 2 2 2 2 2 2 1 1 2 2
3 3 3 3 2 2 2 2 2 3 3 3 3 2 1 1 1 1 2 2 1 2 2 2 3 3 3 3 3 3 2 2 2 2 2 1 2 2
3 1 1 1 1 1 1 1 1 1 2 2 2 2 2 2 2 1 1 1 2 2 2 2 1 1 2 2 2 3 2 2 2 2 1 1 2 2
4 2 3 3 3 3 3 2 2 2 2 2 2 2 2 2 2 1 1 2 2 2 2 1 0 0 1 1 2 3 2 2 2 2 1 1 2 2
3 3 3 4 3 3 3 3 3 3 3 3 3 2 2 2 2 2 2 2 2 2 2 1 1 2 2 3 2 1 2 2 1 1 1 2 2 2
2 3 4 4 3 3 3 3 3 2 2 3 3 2 2 2 2 2 2 2 2 2 1 1 2 2 3 3 2 2 2 1 1 1 1 1 1 2
3 3 3 3 3 3 3 3 3 3 3 3 3 3 3 3 2 2 2 2 2 1 2 3 3 3 1 1 0 1 2 2 0 1 1 1 1 1
3 3 3 3 3 3 3 3 3 3 3 3 3 3 3 3 3 3 2 2 2 2 2 1 1 1 1 1 1 1 1 2 3 2 2 0 1 2
4 3 3 3 3 3 3 4 4 4 4 4 3 3 3 3 3 3 3 3 2 2 1 1 0 1 1 1 1 1 1 1 1 2 3 4 2 2
Wind_Direction
195 189 191 202 186 183 164 160 162 202 279 296 311 330 329 330 343 2 8 10 13 19 27 31 46 55 58 50 49 44 37 38 37 26 15 10 4 11
193 187 203 207 193 176 171 163 161 167 213 280 275 309 327 332 339 345 353 6 14 20 25 36 45 47 50 48 47 41 33 25 17 5 354 358 359 1
208 199 215 184 172 171 154 147 147 149 190 285 316 325 342 343 350 349 351 358 1 18 22 25 26 27 17 35 47 49 29 6 347 332 326 326 332 330
212 202 217 188 180 172 165 171 171 167 173 235 311 329 310 314 335 10 1 349 337 352 13 12 4 1 357 335 326 10 353 336 322 317 311 310 310 305
211 207 208 184 194 190 186 188 183 169 157 176 267 309 316 338 357 0 5 357 348 344 356 349 353 356 345 323 293 318 318 307 298 295 289 286 284 285
215 211 203 194 202 199 199 196 176 161 152 155 221 279 286 303 26 319 336 345 347 350 347 348 344 339 323 315 294 281 283 290 289 283 279 275 267 263
221 218 213 205 203 197 198 190 175 171 169 175 208 240 255 232 231 220 250 317 329 342 347 348 352 340 312 293 281 275 271 279 286 286 281 276 260 246
222 226 223 222 223 215 211 195 182 180 184 187 208 218 232 224 213 203 198 343 298 305 357 313 347 306 292 286 283 276 273 278 282 280 276 278 256 242
220 217 221 217 216 212 220 216 209 208 197 191 199 219 217 211 190 202 208 212 240 252 203 283 302 288 284 286 289 280 276 276 277 273 270 272 267 254
214 211 212 219 208 197 192 203 218 226 216 208 209 221 216 201 195 199 201 203 280 274 159 247 279 277 298 286 288 282 274 274 270 265 262 262 259 257
217 210 205 208 213 195 178 196 222 247 238 227 231 234 228 209 180 149 155 169 258 259 204 210 252 277 288 286 283 281 272 272 274 271 270 262 253 244
221 222 217 210 209 195 187 191 214 233 225 236 254 256 229 198 191 183 185 191 213 244 210 200 229 259 292 282 287 291 286 281 274 274 280 275 258 225
216 227 225 214 213 206 198 199 216 214 202 206 221 231 214 199 204 197 188 192 203 230 208 190 206 203 225 275 290 283 282 294 287 284 279 277 249 213
215 221 219 208 208 208 208 219 216 195 178 187 201 213 221 229 236 224 209 209 213 224 207 186 199 200 211 251 279 288 276 274 273 281 285 285 263 248
214 210 206 204 210 219 223 213 196 176 177 195 213 224 228 235 240 238 226 223 247 260 211 191 200 202 206 227 247 264 275 283 267 257 256 258 261 256
214 201 189 181 183 198 205 205 187 187 185 204 216 223 222 222 220 212 211 211 230 281 290 236 214 197 208 226 225 253 259 259 268 262 258 270 282 257
168 144 147 162 194 210 211 205 188 179 196 202 204 208 216 225 236 225 201 190 213 246 274 302 295 210 204 207 233 251 254 266 266 253 237 262 276 273
166 176 193 197 203 206 206 210 204 210 214 206 205 207 214 220 227 224 205 203 220 241 251 262 259 302 284 285 239 239 248 261 270 255 223 221 266 282
182 192 201 207 207 208 208 206 213 219 211 207 208 213 218 217 213 213 215 220 231 240 250 235 213 202 224 259 280 234 231 265 264 254 250 231 244 267
192 203 210 208 205 206 207 207 211 213 213 217 210 210 212 214 218 216 212 219 227 236 255 244 225 223 224 232 251 292 276 235 226 240 268 294 292 304
207 209 214 213 207 207 207 202 200 207 212 212 213 208 207 207 219 224 218 213 215 222 235 251 258 255 218 114 47 314 326 323 227 204 216 205 275 294
209 213 213 210 208 207 208 200 201 207 207 210 212 207 204 203 209 212 211 208 217 219 234 261 338 88 141 175 221 271 311 342 353 14 21 353 207 220
213 213 211 206 210 208 206 207 209 214 212 208 208 208 203 207 210 204 207 209 205 203 203 209 154 116 150 182 209 247 291 323 358 15 350 340 311 271
Height
1524 1524 1524 1525 1525 1525 1525 1525 1525 1524 1523 1523 1524 1524 1524 1524 1524 1524 1525 1525 1525 1525 1524 1525 1525 1525 1525 1525 1525 1525 1525 1525 1526 1526 1526 1526 1526 1527
1522 1522 1522 1522 1522 1522 1522 1522 1522 1523 1522 1522 1522 1522 1522 1522 1523 1523 1523 1523 1523 1523 1523 1523 1523 1523 1523 1523 1523 1524 1524 1524 1524 1524 1524 1524 1524 1524
1519 1519 1520 1520 1520 1520 1520 1520 1520 1521 1520 1520 1520 1520 1520 1520 1521 1521 1521 1521 1522 1522 1522 1522 1522 1522 1522 1521 1521 1521 1522 1522 1521 1521 1521 1521 1521 1522
1516 1517 1517 1517 1517 1518 1518 1518 1518 1518 1518 1517 1518 1518 1518 1519 1519 1519 1519 1520 1520 1520 1520 1520 1520 1520 1519 1519 1519 1519 1519 1519 1519 1519 1519 1519 1519 1519
1514 1514 1514 1514 1514 1515 1515 1515 1516 1516 1516 1516 1515 1516 1516 1516 1516 1517 1517 1518 1518 1518 1518 1518 1518 1517 1517 1517 1517 1517 1517 1516 1516 1516 1516 1516 1516 1516
1511 1511 1511 1511 1511 1512 1512 1513 1513 1513 1513 1514 1513 1513 1513 1514 1514 1514 1515 1515 1515 1515 1515 1515 1515 1515 1515 1514 1514 1514 1514 1514 1513 1513 1512 1512 1512 1512
1507 1507 1508 1508 1508 1509 1509 1510 1510 1510 1511 1511 1511 1511 1511 1511 1511 1512 1512 1512 1512 1513 1513 1512 1512 1512 1512 1511 1511 1511 1511 1510 1510 1509 1508 1507 1507 1508
1503 1504 1504 1504 1505 1506 1506 1507 1507 1507 1507 1508 1508 1508 1508 1509 1509 1509 1510 1509 1509 1510 1510 1509 1509 1509 1509 1509 1508 1508 1507 1507 1506 1506 1505 1503 1503 1505
1499 1500 1500 1501 1501 1502 1503 1503 1504 1504 1505 1505 1505 1505 1505 1506 1506 1506 1507 1507 1507 1507 1507 1506 1506 1506 1506 1505 1505 1505 1504 1504 1503 1503 1502 1501 1502 1502
1495 1495 1496 1497 1497 1498 1499 1499 1500 1500 1501 1501 1501 1502 1502 1503 1503 1504 1504 1504 1504 1504 1504 1503 1503 1503 1503 1502 1502 1502 1501 1501 1500 1500 1499 1499 1500 1500
1491 1492 1492 1493 1494 1494 1495 1495 1496 1496 1497 1497 1498 1498 1499 1499 1500 1500 1500 1500 1500 1500 1500 1500 1499 1499 1499 1499 1499 1498 1498 1498 1497 1497 1497 1497 1497 1497
1487 1487 1488 1488 1489 1490 1490 1491 1491 1492 1493 1493 1494 1494 1494 1495 1495 1496 1496 1496 1496 1496 1496 1496 1496 1496 1495 1495 1495 1495 1495 1495 1494 1494 1494 1493 1493 1493
1482 1483 1484 1484 1485 1485 1486 1486 1487 1488 1488 1489 1489 1489 1490 1490 1490 1491 1492 1492 1492 1492 1493 1493 1492 1492 1492 1492 1491 1492 1491 1491 1491 1490 1490 1490 1490 1490
1478 1478 1479 1480 1480 1481 1481 1482 1483 1483 1483 1484 1484 1484 1485 1485 1486 1487 1487 1488 1488 1489 1489 1489 1489 1489 1488 1488 1488 1487 1488 1488 1487 1487 1487 1487 1487 1487
1473 1474 1475 1475 1476 1476 1477 1477 1478 1478 1479 1479 1479 1480 1481 1482 1482 1483 1483 1484 1484 1484 1484 1485 1485 1485 1485 1485 1484 1484 1484 1484 1484 1484 1483 1483 1483 1483
1469 1469 1470 1470 1471 1472 1472 1472 1473 1473 1474 1475 1475 1476 1477 1477 1478 1478 1478 1479 1479 1479 1480 1480 1480 1481 1481 1481 1481 1481 1481 1480 1480 1480 1480 1480 1480 1480
1464 1464 1465 1465 1466 1466 1467 1467 1468 1469 1469 1470 1471 1472 1472 1473 1473 1474 1474 1474 1474 1474 1475 1476 1476 1477 1477 1477 1477 1477 1477 1477 1477 1477 1477 1476 1477 1477
1459 1459 1460 1460 1461 1461 1462 1463 1464 1464 1465 1465 1466 1467 1467 1468 1468 1469 1470 1470 1470 1471 1471 1472 1472 1472 1473 1473 1474 1473 1474 1474 1474 1474 1474 1473 1473 1474
1455 1455 1456 1456 1457 1457 1458 1458 1459 1460 1461 1461 1461 1462 1463 1463 1464 1465 1466 1466 1467 1467 1468 1468 1468 1468 1468 1468 1469 1470 1470 1470 1470 1470 1470 1470 1469 1470
1450 1451 1451 1452 1452 1453 1453 1454 1455 1456 1456 1457 1457 1458 1459 1460 1460 1461 1462 1462 1463 1464 1464 1464 1465 1465 1465 1466 1466 1466 1467 1467 1467 1466 1466 1467 1467 1467
1446 1447 1448 1448 1447 1448 1449 1450 1450 1451 1452 1453 1453 1454 1455 1456 1457 1458 1458 1459 1460 1460 1460 1461 1461 1462 1463 1463 1463 1463 1464 1464 1464 1463 1463 1463 1463 1463
1442 1443 1443 1444 1444 1444 1446 1446 1447 1448 1448 1449 1449 1450 1451 1452 1453 1454 1455 1456 1457 1457 1458 1459 1459 1459 1460 1460 1459 1460 1460 1461 1461 1461 1461 1461 1460 1459
1438 1438 1439 1440 1440 1441 1442 1443 1444 1444 1445 1445 1446 1447 1448 1449 1450 1451 1452 1453 1454 1454 1455 1456 1456 1457 1457 1457 1458 1458 1458 1458 1458 1458 1458 1458 1458 1458